This is the latest recevied weather packets stored in our database for station/object OE9XVI-6. If no packets are shown the sender has not sent any weather packets the latest 10 day(s).
| Time | Temp. | Humidity | Pressure | Rain* | Wind** | Luminosity | Snow |
|---|---|---|---|---|---|---|---|
| 1777621025 | 10.56° C | 61% | 1026.3 hPa | 0 mm | - | - | - |
| 1777619825 | 10° C | 59% | 1026.2 hPa | 0 mm | - | - | - |
| 1777619225 | 10° C | 60% | 1026.1 hPa | 0 mm | - | - | - |
| 1777618625 | 10° C | 64% | 1026.1 hPa | 0 mm | - | - | - |
| 1777618025 | 10° C | 66% | 1026 hPa | 0 mm | - | - | - |
| 1777617425 | 10° C | 68% | 1025.9 hPa | 0 mm | - | - | - |
| 1777616825 | 9.44° C | 69% | 1025.9 hPa | 0 mm | - | - | - |
| 1777616225 | 9.44° C | 70% | 1025.8 hPa | 0 mm | - | - | - |
| 1777615625 | 8.89° C | 70% | 1025.8 hPa | 0 mm | - | - | - |
| 1777615025 | 8.33° C | 69% | 1025.6 hPa | 0 mm | - | - | - |
| 1777614425 | 8.33° C | 68% | 1025.6 hPa | 0 mm | - | - | - |
| 1777613825 | 7.78° C | 69% | 1025.5 hPa | 0 mm | - | - | - |
| 1777613225 | 7.78° C | 69% | 1025.4 hPa | 0 mm | - | - | - |
| 1777612625 | 7.22° C | 70% | 1025.4 hPa | 0 mm | - | - | - |
| 1777612025 | 7.22° C | 70% | 1025.3 hPa | 0 mm | - | - | - |
| 1777611425 | 7.22° C | 69% | 1025.2 hPa | 0 mm | - | - | - |
| 1777610826 | 7.22° C | 69% | 1025.2 hPa | 0 mm | - | - | - |
| 1777610225 | 7.22° C | 69% | 1025.1 hPa | 0 mm | - | - | - |
| 1777609625 | 6.67° C | 71% | 1024.9 hPa | 0 mm | - | - | - |
| 1777609026 | 6.11° C | 72% | 1024.9 hPa | 0 mm | - | - | - |
| 1777608426 | 6.11° C | 73% | 1024.9 hPa | 0 mm | - | - | - |
| 1777607825 | 5.56° C | 74% | 1024.8 hPa | 0 mm | - | - | - |
| 1777607226 | 5.56° C | 73% | 1024.8 hPa | 0 mm | - | - | - |
| 1777606626 | 6.11° C | 72% | 1024.9 hPa | 0 mm | - | - | - |
| 1777606026 | 6.11° C | 72% | 1024.8 hPa | 0 mm | - | - | - |
* Rain latest hour (hover to see other rain measurements)
** Current wind speed in m/s (hover to see current wind gust speed)